Regional Weather Roundup
Issued by NWS

Home | Current Version | Previous Version | Graphics & Text | Print | Product List | Glossary On
Versions: 1 2 3 4 5 6 7 8 9 10 11 12 13 14 15 16 17 18 19 20 21 22 23 24 25 26 27 28 29 30 31 32 33 34 35 36 37 38 39 40 41 42 43 44 45 46 47 48 49 50
000
ASUS45 KBOI 181610
RWRID
WEATHER ROUNDUP FOR IDAHO
NATIONAL WEATHER SERVICE BOISE ID
1000 AM MDT THU SEP 18 2014

NOTE: "FAIR" INDICATES FEW OR NO CLOUDS BELOW 12000 FEET
WITH NO SIGNIFICANT WEATHER AND/OR OBSTRUCTIONS TO VISIBILITY

IDZ012-014-181700-
SOUTHWEST IDAHO


CITY           SKY/WX    TMP DP  RH WIND       PRES   REMARKS
BOISE          CLOUDY    74  42  31 CALM      29.82R
CALDWELL       CLOUDY    66  52  59 CALM      29.83R
$$

IDZ016-017-181700-
SOUTHCENTRAL IDAHO


CITY           SKY/WX    TMP DP  RH WIND       PRES   REMARKS
JEROME         MOSUNNY   70  50  49 SW6       29.88R
TWIN FALLS     NOT AVBL
$$

IDZ019>023-181700-
SOUTHEAST IDAHO


CITY           SKY/WX    TMP DP  RH WIND       PRES   REMARKS
IDAHO FALLS    PTSUNNY   61  56  83 CALM      29.93F
POCATELLO      MOSUNNY   70  57  63 E5        29.89S
REXBURG        PTSUNNY   64  49  57 VRB6      29.93F
$$

IDZ006-010-011-018-031-032-181700-
CENTRAL IDAHO MOUNTAINS


CITY           SKY/WX    TMP DP  RH WIND       PRES   REMARKS
MCCALL         CLOUDY    60  46  59 NW5       29.92F HAZE
HAILEY         MOSUNNY   63  54  72 W13       29.97R
STANLEY          N/A     54  45  71 NW7       30.07R
SALMON         CLOUDY    61  48  63 N6        29.89R
CHALLIS        CLOUDY    61  49  64 SE5       29.96R
$$

IDZ002-004-006-007-026-181700-
NORTHERN IDAHO


CITY           SKY/WX    TMP DP  RH WIND       PRES   REMARKS
LEWISTON       MOSUNNY   68  47  46 CALM      29.75R HAZE
LOWELL           N/A     59  57  93 N3        29.79S
COEUR D`ALENE  MOSUNNY   64  46  52 S8        29.74R
MULLAN PASS    CLOUDY    59  41  51 VRB3      29.89R
$$



USA.gov is the U.S. government's official web portal to all federal, state and local government web resources and services.